Home   Weather   Suzuka   Past weeks

Flag for Japan Past Weather in Suzuka, Japan — Yesterday and Last 2 Weeks

Now
55 °F

Cool.


Feels Like: 54 °F
Forecast: 48 / 74 °F
Wind: 5 mph from Northwest

Location: Tsu

Current Time: Apr 30, 2017 at 2:43:00 am

Latest Report: Apr 30, 2017 at 1:00 am


Visibility: N/A

Pressure: 29.85 "Hg

Humidity: 66%

Dew Point: 44 °F

Location of SuzukaLocation

Past Weather in Suzuka — Graph

°F

Suzuka Temperature Yesterday

Maximum temperature yesterday: 65 °F (at 5:00 pm)
Minimum temperature yesterday: 51 °F (at 4:00 am)
Average temperature yesterday: 59 °F

High & Low Weather Summary for the Past Weeks

 TemperatureHumidityPressure
High69 °F (Apr 16, 7:00 pm)92% (Apr 18, 12:00 am)30.35 "Hg (Apr 18, 12:00 am)
Low49 °F (Apr 28, 5:00 am)19% (Apr 27, 4:00 pm)29.29 "Hg (Apr 18, 2:00 am)
Average60 °F59%29.89 "Hg
* Reported Apr 15 1:00 am — Apr 30 1:00 am, Suzuka, Weather by CustomWeather, © 2017

Note: Actual official high and low records may vary slightly from our data, if they occured in-between our weather recording intervals... More about our weather records

Advertising

Suzuka Weather History for the Previous 24 Hours

Scroll right to see more
 ConditionsComfort  
Time TempWeatherWind HumidityBarometerVisibility
1:00 am
Sun, Apr 30
55 °FCool.5 mph66%29.85 "HgN/A
12:00 am56 °FCool.5 mph65%29.86 "HgN/A
11:00 pm
Sat, Apr 29
59 °FRefreshingly cool.5 mph57%29.85 "HgN/A
10:00 pm59 °FRefreshingly cool.5 mph58%29.85 "HgN/A
9:00 pm60 °FClear.5 mph55%29.83 "Hg12 mi
8:00 pm62 °FRefreshingly cool.6 mph51%29.80 "HgN/A
7:00 pm62 °FRefreshingly cool.7 mph52%29.78 "HgN/A
6:00 pm64 °FMild.5 mph45%29.76 "HgN/A
5:00 pm65 °FMild.7 mph40%29.75 "HgN/A
4:00 pm61 °FRefreshingly cool.12 mph50%29.73 "HgN/A
3:00 pm63 °FOvercast.22 mph42%29.72 "Hg9 mi
2:00 pm65 °FMild.6 mph59%29.69 "HgN/A
1:00 pm63 °FMild.7 mph63%29.70 "HgN/A
12:00 pm63 °FMild.7 mph59%29.72 "HgN/A
11:00 am62 °FRefreshingly cool.6 mph58%29.73 "HgN/A
10:00 am61 °FCool.6 mph62%29.75 "HgN/A
9:00 am59 °FPartly sunny.6 mph62%29.75 "Hg9 mi
8:00 am58 °FCool.5 mph60%29.76 "HgN/A
7:00 am56 °FRefreshingly cool.3 mph56%29.77 "HgN/A
6:00 am53 °FCool.3 mph58%29.77 "HgN/A
5:00 am52 °FCool.3 mph57%29.77 "HgN/A
4:00 am51 °FCool.5 mph63%29.76 "HgN/A
3:00 am53 °FCool.2 mph60%29.76 "HgN/A
2:00 am55 °FCool.1 mph48%29.77 "HgN/A
Weather by CustomWeather, © 2017

See weather overviewHow to use our weather pages